F3965 Weather Reports


time (UTC)temp
C
wind
direction
speed
KPH
gust
KPH
rain 1hr
cm
rain 24hr
cm
rain mn
cm
humidity
%
barometer
mb
20260503201533 14 0 1.6 4.8 0.00 2.54 2.54 64 1011.6
20260503200034 14 0 0.0 3.2 0.00 2.54 2.54 65 1011.7
20260503194535 14 9 0.0 3.2 0.25 2.54 2.54 64 1011.6
20260503193030 14 9 3.2 4.8 0.28 2.54 2.54 64 1011.7
20260503191552 14 9 3.2 9.7 0.28 2.54 2.54 63 1011.6
20260503190037 15 27 4.8 17.7 0.25 2.51 2.51 63 1011.6
20260503184535 15 12 3.2 6.4 0.00 2.29 2.26 63 1011.6
20260503183040 15 32 3.2 8.0 0.13 2.26 2.24 63 1011.6
20260503181535 14 0 1.6 3.2 0.38 2.26 2.24 62 1011.3
20260503180033 14 0 0.0 4.8 1.14 2.26 2.24 61 1011.2
20260503174541 14 351 1.6 12.9 2.01 2.36 2.24 59 1011.2
20260503173030 15 18 14.5 29.0 1.85 2.21 2.08 58 1011.1
20260503171533 15 5 11.3 48.3 1.57 1.96 1.83 56 1010.8
20260503081544 17 295 1.6 11.3 0.00 0.99 0.00 53 1012.7
20260503071554 14 304 4.8 11.3 0.00 0.99 0.00 65 1013.0
20260503054545 12 291 4.8 9.7 0.00 0.99 0.00 65 1013.0
20260503053033 12 277 1.6 9.7 0.00 0.99 0.00 65 1012.9
20260503051544 12 262 1.6 8.0 0.00 0.99 0.00 65 1012.8
20260503050035 12 289 1.6 4.8 0.00 0.99 0.00 65 1012.8
20260503044535 12 0 0.0 3.2 0.00 0.99 0.00 65 1012.7
20260503043033 12 0 1.6 6.4 0.00 0.99 0.00 65 1012.7
20260503041533 12 321 3.2 6.4 0.00 0.99 0.00 65 1012.7
20260503040034 12 277 3.2 9.7 0.00 0.99 0.00 64 1012.7
20260503034530 12 0 1.6 4.8 0.00 0.99 0.00 64 1012.8
20260503033030 12 274 1.6 8.0 0.00 0.99 0.00 64 1012.9
20260503031532 12 295 1.6 4.8 0.00 0.99 0.00 64 1012.9
20260503030036 12 0 0.0 3.2 0.00 0.99 0.00 64 1013.0
20260503024542 12 0 0.0 3.2 0.00 0.99 0.00 64 1013.1
20260503023030 12 0 0.0 6.4 0.00 0.99 0.00 64 1013.2
20260503021534 13 294 4.8 8.0 0.00 0.99 0.00 64 1013.1
20260503020030 13 227 1.6 6.4 0.00 0.99 0.00 63 1013.4
20260503014528 13 221 0.0 4.8 0.00 0.99 0.00 63 1013.4
20260503013036 13 0 0.0 3.2 0.00 0.99 0.00 63 1013.5
20260503011530 13 221 3.2 4.8 0.00 0.99 0.00 63 1013.6
20260503010033 13 221 0.0 4.8 0.00 0.99 0.00 62 1013.8
20260503004537 13 221 0.0 3.2 0.00 0.99 0.00 62 1013.7
20260503003039 13 221 0.0 4.8 0.00 0.99 0.00 62 1013.9
20260503001534 13 220 0.0 3.2 0.00 0.99 0.00 62 1013.8
20260503000032 13 220 1.6 4.8 0.00 0.99 0.00 61 1013.9
20260502234545 14 220 3.2 4.8 0.00 0.99 0.00 61 1014.1
20260502233032 14 0 0.0 4.8 0.00 0.99 0.00 61 1014.2
20260502231532 14 0 0.0 6.4 0.00 0.99 0.00 61 1014.3
20260502230035 14 0 0.0 1.6 0.00 0.99 0.00 60 1014.2
20260502224535 14 201 1.6 3.2 0.00 0.99 0.00 60 1014.2
20260502223034 14 201 0.0 3.2 0.00 0.99 0.00 59 1014.1
20260502221530 14 201 0.0 3.2 0.00 0.99 0.00 59 1014.2
20260502220031 15 0 0.0 3.2 0.00 0.99 0.00 58 1014.1
20260502214537 15 201 1.6 4.8 0.00 0.99 0.99 58 1014.0
20260502213043 15 0 1.6 9.7 0.00 0.99 0.99 58 1014.0
20260502211537 15 0 0.0 3.2 0.00 0.99 0.99 56 1013.9
20260502210032 15 0 0.0 6.4 0.00 0.99 0.99 56 1013.9
20260502204532 15 300 0.0 4.8 0.00 0.99 0.99 55 1013.8
20260502203036 15 300 0.0 3.2 0.00 0.99 0.99 55 1013.7